Location: Caltech
(34.1382°N, 118.1253°W)
Time: 13:48:52
(UTC-07:00)

JAS-1B - Visible Passes

Search period start: 01 July 2016 00:00
Search period end: 11 July 2016 00:00
Orbit: 911 x 1745 km, 99.0° (Epoch: 01 July)

Date Brightness Start Highest point End Pass type
(mag) Time Alt. Az. Time Alt. Az. Time Alt. Az.
01 Jul 10.0 21:13:45 10° NNW 21:16:57 15° WNW 21:20:19 10° W visible
04 Jul 10.8 04:56:50 10° ENE 04:57:07 10° ENE 04:57:24 10° ENE visible
05 Jul 10.4 05:12:11 10° E 05:15:52 15° ENE 05:19:19 10° NNE visible
05 Jul 9.4 20:37:29 10° NNW 20:42:31 29° WNW 20:48:09 10° SW visible
06 Jul 9.9 20:57:06 10° NNW 21:01:23 21° WNW 21:06:03 10° WSW visible
07 Jul 10.2 21:17:13 10° NW 21:20:11 14° WNW 21:23:20 10° W visible
10 Jul 10.7 04:58:57 10° ENE 05:00:22 11° ENE 05:01:46 10° NE visible
